Time,TemperatureF,DewpointF,PressureIn,WindDirection,WindDirectionDegrees,WindSpeedMPH,WindSpeedGustMPH,Humidity,HourlyPrecipIn,Conditions,Clouds,dailyrainin,SolarRadiationWatts/m^2,SoftwareType,DateUTC
2013-03-08 00:04:00,44.5,29.3,29.85,ESE,105,4.0,11.0,55,0.00,,,0.00,0,Wunderground v.1.15,2013-03-08 07:04:00,
2013-03-08 00:09:00,44.1,29.4,29.85,ESE,105,3.0,11.0,56,0.00,,,0.00,0,Wunderground v.1.15,2013-03-08 07:09:00,
2013-03-08 00:14:00,44.0,29.7,29.85,ESE,105,3.0,11.0,57,0.00,,,0.00,0,Wunderground v.1.15,2013-03-08 07:14:00,
2013-03-08 00:24:00,43.6,29.8,29.85,ESE,105,4.0,11.0,58,0.00,,,0.00,0,Wunderground v.1.15,2013-03-08 07:24:00,
2013-03-08 00:30:00,43.4,29.6,29.85,ESE,105,3.0,11.0,58,0.00,,,0.00,0,Wunderground v.1.15,2013-03-08 07:30:00,
2013-03-08 00:35:00,43.3,29.9,29.85,ESE,105,4.0,11.0,59,0.00,,,0.00,0,Wunderground v.1.15,2013-03-08 07:35:00,
2013-03-08 00:40:00,43.2,29.8,29.85,ESE,105,4.0,4.0,59,0.00,,,0.00,0,Wunderground v.1.15,2013-03-08 07:40:00,
2013-03-08 00:45:00,43.0,29.6,29.85,ESE,105,3.0,11.0,59,0.00,,,0.00,0,Wunderground v.1.15,2013-03-08 07:45:00,
2013-03-08 00:55:00,42.5,29.6,29.85,ESE,105,2.0,11.0,60,0.00,,,0.00,0,Wunderground v.1.15,2013-03-08 07:55:00,
2013-03-08 01:00:00,42.2,29.3,29.85,ESE,105,3.0,11.0,60,0.00,,,0.00,0,Wunderground v.1.15,2013-03-08 08:00:00,
2013-03-08 01:05:00,41.9,29.4,29.85,ESE,105,3.0,11.0,61,0.00,,,0.00,0,Wunderground v.1.15,2013-03-08 08:05:00,
2013-03-08 01:10:00,41.6,29.1,29.86,ESE,105,3.0,3.0,61,0.00,,,0.00,0,Wunderground v.1.15,2013-03-08 08:10:00,
2013-03-08 01:15:00,41.4,29.3,29.85,ESE,105,2.0,11.0,62,0.00,,,0.00,0,Wunderground v.1.15,2013-03-08 08:15:00,
2013-03-08 01:25:00,41.0,29.4,29.85,ESE,105,3.0,11.0,63,0.00,,,0.00,0,Wunderground v.1.15,2013-03-08 08:25:00,
2013-03-08 01:30:00,40.9,28.9,29.84,ESE,105,3.0,11.0,62,0.00,,,0.00,0,Wunderground v.1.15,2013-03-08 08:30:00,
2013-03-08 01:35:00,40.8,28.8,29.84,ESE,105,3.0,11.0,62,0.00,,,0.00,0,Wunderground v.1.15,2013-03-08 08:35:00,
2013-03-08 01:40:00,40.6,28.6,29.84,ESE,105,4.0,4.0,62,0.00,,,0.00,0,Wunderground v.1.15,2013-03-08 08:40:00,
2013-03-08 01:45:00,40.4,28.8,29.84,ESE,105,3.0,11.0,63,0.00,,,0.00,0,Wunderground v.1.15,2013-03-08 08:45:00,
2013-03-08 01:50:00,40.2,28.6,29.84,ESE,105,3.0,3.0,63,0.00,,,0.00,0,Wunderground v.1.15,2013-03-08 08:50:00,
2013-03-08 02:00:00,39.8,28.6,29.83,ESE,105,2.0,2.0,64,0.00,,,0.00,0,Wunderground v.1.15,2013-03-08 09:00:00,
2013-03-08 02:05:00,39.6,28.8,29.83,ESE,105,1.0,11.0,65,0.00,,,0.00,0,Wunderground v.1.15,2013-03-08 09:05:00,
2013-03-08 02:15:00,39.3,28.5,29.83,ESE,105,0.0,11.0,65,0.00,,,0.00,0,Wunderground v.1.15,2013-03-08 09:15:00,
2013-03-08 02:20:00,39.2,28.4,29.82,ESE,105,0.0,11.0,65,0.00,,,0.00,0,Wunderground v.1.15,2013-03-08 09:20:00,
2013-03-08 02:25:00,39.1,28.7,29.82,ESE,105,0.0,11.0,66,0.00,,,0.00,0,Wunderground v.1.15,2013-03-08 09:25:00,
2013-03-08 02:35:00,38.8,28.4,29.82,ESE,105,0.0,11.0,66,0.00,,,0.00,0,Wunderground v.1.15,2013-03-08 09:35:00,
2013-03-08 02:40:00,38.5,28.1,29.82,ESE,105,0.0,11.0,66,0.00,,,0.00,0,Wunderground v.1.15,2013-03-08 09:40:00,
2013-03-08 02:45:00,38.4,28.0,29.83,ESE,105,1.0,11.0,66,0.00,,,0.00,0,Wunderground v.1.15,2013-03-08 09:45:00,
2013-03-08 02:50:00,38.2,27.8,29.83,ESE,105,1.0,1.0,66,0.00,,,0.00,0,Wunderground v.1.15,2013-03-08 09:50:00,
2013-03-08 02:55:00,38.0,28.0,29.83,ESE,105,1.0,3.0,67,0.00,,,0.00,0,Wunderground v.1.15,2013-03-08 09:55:00,
2013-03-08 03:05:00,37.4,27.8,29.82,ESE,105,3.0,11.0,68,0.00,,,0.00,0,Wunderground v.1.15,2013-03-08 10:05:00,
2013-03-08 03:10:00,37.2,27.6,29.82,ESE,105,2.0,2.0,68,0.00,,,0.00,0,Wunderground v.1.15,2013-03-08 10:10:00,
2013-03-08 03:15:00,37.0,27.8,29.83,ESE,105,1.0,11.0,69,0.00,,,0.00,0,Wunderground v.1.15,2013-03-08 10:15:00,
2013-03-08 03:20:00,36.8,27.6,29.83,ESE,105,0.0,11.0,69,0.00,,,0.00,0,Wunderground v.1.15,2013-03-08 10:20:00,
2013-03-08 03:25:00,36.6,27.4,29.83,ESE,105,0.0,11.0,69,0.00,,,0.00,0,Wunderground v.1.15,2013-03-08 10:25:00,
2013-03-08 03:30:00,36.5,27.6,29.83,ESE,105,0.0,11.0,70,0.00,,,0.00,0,Wunderground v.1.15,2013-03-08 10:30:00,
2013-03-08 03:40:00,36.2,27.4,29.83,ESE,105,0.0,11.0,70,0.00,,,0.00,0,Wunderground v.1.15,2013-03-08 10:40:00,
2013-03-08 03:45:00,36.1,27.9,29.83,ESE,105,0.0,11.0,72,0.00,,,0.00,0,Wunderground v.1.15,2013-03-08 10:45:00,
2013-03-08 03:50:00,36.0,27.8,29.83,ESE,105,0.0,11.0,72,0.00,,,0.00,0,Wunderground v.1.15,2013-03-08 10:50:00,
2013-03-08 03:55:00,35.9,27.7,29.83,ESE,105,0.0,11.0,72,0.00,,,0.00,0,Wunderground v.1.15,2013-03-08 10:55:00,
2013-03-08 04:00:00,36.1,28.3,29.83,ESE,105,0.0,11.0,73,0.00,,,0.00,0,Wunderground v.1.15,2013-03-08 11:00:00,
2013-03-08 04:10:00,36.4,28.6,29.83,ESE,105,1.0,11.0,73,0.00,,,0.00,0,Wunderground v.1.15,2013-03-08 11:10:00,
2013-03-08 04:15:00,36.6,28.8,29.83,ESE,104,3.0,11.0,73,0.00,,,0.00,0,Wunderground v.1.15,2013-03-08 11:15:00,
2013-03-08 04:20:00,36.9,28.7,29.83,ESE,104,3.0,3.0,72,0.00,,,0.00,0,Wunderground v.1.15,2013-03-08 11:20:00,
2013-03-08 04:25:00,37.0,28.8,29.83,ESE,104,2.0,11.0,72,0.00,,,0.00,0,Wunderground v.1.15,2013-03-08 11:25:00,
2013-03-08 04:30:00,36.8,28.6,29.83,ESE,104,2.0,11.0,72,0.00,,,0.00,0,Wunderground v.1.15,2013-03-08 11:30:00,
2013-03-08 04:35:00,36.6,28.4,29.83,ESE,104,3.0,11.0,72,0.00,,,0.00,0,Wunderground v.1.15,2013-03-08 11:35:00,
2013-03-08 04:45:00,36.1,27.9,29.83,ESE,104,1.0,11.0,72,0.00,,,0.00,0,Wunderground v.1.15,2013-03-08 11:45:00,
2013-03-08 04:50:00,36.0,27.8,29.84,ESE,104,0.0,11.0,72,0.00,,,0.00,0,Wunderground v.1.15,2013-03-08 11:50:00,
2013-03-08 04:55:00,35.8,28.0,29.83,ESE,104,1.0,11.0,73,0.00,,,0.00,0,Wunderground v.1.15,2013-03-08 11:55:00,
2013-03-08 05:00:00,35.7,27.9,29.84,ESE,104,1.0,1.0,73,0.00,,,0.00,0,Wunderground v.1.15,2013-03-08 12:00:00,
2013-03-08 05:05:00,35.7,27.9,29.84,ESE,104,0.0,11.0,73,0.00,,,0.00,0,Wunderground v.1.15,2013-03-08 12:05:00,
2013-03-08 05:15:00,35.4,27.6,29.83,ESE,104,0.0,11.0,73,0.00,,,0.00,0,Wunderground v.1.15,2013-03-08 12:15:00,
2013-03-08 05:20:00,35.2,27.7,29.83,ESE,104,0.0,11.0,74,0.00,,,0.00,0,Wunderground v.1.15,2013-03-08 12:20:00,
2013-03-08 05:25:00,35.1,28.0,29.83,ESE,104,1.0,11.0,75,0.00,,,0.00,0,Wunderground v.1.15,2013-03-08 12:25:00,
2013-03-08 05:30:00,35.0,27.9,29.83,ESE,104,1.0,1.0,75,0.00,,,0.00,0,Wunderground v.1.15,2013-03-08 12:30:00,
2013-03-08 05:35:00,34.9,27.8,29.83,ESE,104,0.0,11.0,75,0.00,,,0.00,0,Wunderground v.1.15,2013-03-08 12:35:00,
2013-03-08 05:40:00,34.9,27.8,29.83,ESE,104,0.0,11.0,75,0.00,,,0.00,0,Wunderground v.1.15,2013-03-08 12:40:00,
2013-03-08 05:50:00,35.3,28.2,29.83,ESE,104,1.0,11.0,75,0.00,,,0.00,0,Wunderground v.1.15,2013-03-08 12:50:00,
2013-03-08 05:55:00,35.6,28.1,29.83,ESE,104,3.0,11.0,74,0.00,,,0.00,0,Wunderground v.1.15,2013-03-08 12:55:00,
2013-03-08 06:00:00,35.5,28.0,29.83,East,101,4.0,11.0,74,0.00,,,0.00,0,Wunderground v.1.15,2013-03-08 13:00:00,
2013-03-08 06:05:00,35.2,27.7,29.83,East,98,5.0,11.0,74,0.00,,,0.00,0,Wunderground v.1.15,2013-03-08 13:05:00,
2013-03-08 06:15:00,34.7,27.9,29.84,East,98,3.0,11.0,76,0.00,,,0.00,0,Wunderground v.1.15,2013-03-08 13:15:00,
2013-03-08 06:20:00,34.4,27.6,29.83,East,98,2.0,11.0,76,0.00,,,0.00,0,Wunderground v.1.15,2013-03-08 13:20:00,
2013-03-08 06:30:00,33.5,27.4,29.83,ENE,59,6.0,11.0,78,0.00,,,0.00,9,Wunderground v.1.15,2013-03-08 13:30:00,
2013-03-08 06:35:00,33.2,27.4,29.83,ENE,64,7.0,11.0,79,0.00,,,0.00,12,Wunderground v.1.15,2013-03-08 13:35:00,
2013-03-08 06:40:00,33.0,27.2,29.83,ENE,64,6.0,6.0,79,0.00,,,0.00,14,Wunderground v.1.15,2013-03-08 13:40:00,
2013-03-08 06:45:00,32.9,27.4,29.83,ENE,63,5.0,7.0,80,0.00,,,0.00,19,Wunderground v.1.15,2013-03-08 13:45:00,
2013-03-08 06:55:00,32.7,27.5,29.83,ENE,73,7.0,11.0,81,0.00,,,0.00,40,Wunderground v.1.15,2013-03-08 13:55:00,
2013-03-08 07:00:00,32.6,27.4,29.83,ENE,72,6.0,6.0,81,0.00,,,0.00,53,Wunderground v.1.15,2013-03-08 14:00:00,
2013-03-08 07:05:00,32.5,27.3,29.83,ENE,72,6.0,11.0,81,0.00,,,0.00,97,Wunderground v.1.15,2013-03-08 14:05:00,
2013-03-08 07:10:00,32.6,27.7,29.83,ENE,72,5.0,5.0,82,0.00,,,0.00,121,Wunderground v.1.15,2013-03-08 14:10:00,
2013-03-08 07:15:00,32.7,27.5,29.83,ENE,72,4.0,11.0,81,0.00,,,0.00,127,Wunderground v.1.15,2013-03-08 14:15:00,
2013-03-08 07:20:00,32.8,27.6,29.83,ENE,57,5.0,11.0,81,0.00,,,0.00,120,Wunderground v.1.15,2013-03-08 14:20:00,
2013-03-08 07:30:00,33.1,27.9,29.83,ENE,59,6.0,6.0,81,0.00,,,0.00,174,Wunderground v.1.15,2013-03-08 14:30:00,
2013-03-08 07:35:00,33.3,28.1,29.83,ENE,59,4.0,11.0,81,0.00,,,0.00,214,Wunderground v.1.15,2013-03-08 14:35:00,
2013-03-08 07:40:00,33.5,28.0,29.82,ENE,59,3.0,11.0,80,0.00,,,0.00,199,Wunderground v.1.15,2013-03-08 14:40:00,
2013-03-08 07:45:00,33.5,28.0,29.82,ENE,59,4.0,11.0,80,0.00,,,0.00,163,Wunderground v.1.15,2013-03-08 14:45:00,
2013-03-08 07:50:00,33.5,28.0,29.83,ENE,59,4.0,11.0,80,0.00,,,0.00,107,Wunderground v.1.15,2013-03-08 14:50:00,
2013-03-08 08:00:00,33.8,28.0,29.82,ENE,59,4.0,4.0,79,0.00,,,0.00,127,Wunderground v.1.15,2013-03-08 15:00:00,
2013-03-08 08:05:00,33.9,28.1,29.82,ENE,60,3.0,11.0,79,0.00,,,0.00,148,Wunderground v.1.15,2013-03-08 15:05:00,
2013-03-08 08:10:00,34.2,28.4,29.82,ENE,59,3.0,3.0,79,0.00,,,0.00,118,Wunderground v.1.15,2013-03-08 15:10:00,
2013-03-08 08:15:00,34.3,28.5,29.82,ENE,59,2.0,11.0,79,0.00,,,0.00,211,Wunderground v.1.15,2013-03-08 15:15:00,
2013-03-08 08:20:00,34.5,28.3,29.82,ENE,59,2.0,11.0,78,0.00,,,0.00,301,Wunderground v.1.15,2013-03-08 15:20:00,
2013-03-08 08:25:00,34.9,28.4,29.82,ENE,59,3.0,11.0,77,0.00,,,0.00,248,Wunderground v.1.15,2013-03-08 15:25:00,
2013-03-08 08:35:00,35.6,28.8,29.81,ENE,60,2.0,11.0,76,0.00,,,0.00,197,Wunderground v.1.15,2013-03-08 15:35:00,
2013-03-08 08:40:00,35.5,28.7,29.81,ENE,59,3.0,11.0,76,0.00,,,0.00,185,Wunderground v.1.15,2013-03-08 15:40:00,
2013-03-08 08:45:00,35.7,28.6,29.81,ENE,57,5.0,11.0,75,0.00,,,0.00,181,Wunderground v.1.15,2013-03-08 15:45:00,
2013-03-08 08:50:00,36.0,28.8,29.82,NE,55,5.0,11.0,75,0.00,,,0.00,230,Wunderground v.1.15,2013-03-08 15:50:00,
2013-03-08 08:55:00,36.2,28.7,29.82,ENE,63,5.0,11.0,74,0.00,,,0.00,250,Wunderground v.1.15,2013-03-08 15:55:00,
2013-03-08 09:05:00,36.8,29.3,29.81,East,82,4.0,11.0,74,0.00,,,0.00,209,Wunderground v.1.15,2013-03-08 16:05:00,
2013-03-08 09:10:00,36.7,28.9,29.81,ENE,74,5.0,11.0,73,0.00,,,0.00,211,Wunderground v.1.15,2013-03-08 16:10:00,
2013-03-08 09:15:00,36.6,28.8,29.81,ENE,74,7.0,11.0,73,0.00,,,0.00,221,Wunderground v.1.15,2013-03-08 16:15:00,
2013-03-08 09:20:00,36.6,28.8,29.80,ENE,76,6.0,6.0,73,0.00,,,0.00,195,Wunderground v.1.15,2013-03-08 16:20:00,
2013-03-08 09:30:00,36.9,28.7,29.80,ENE,75,6.0,6.0,72,0.00,,,0.00,237,Wunderground v.1.15,2013-03-08 16:30:00,
2013-03-08 09:35:00,36.9,28.7,29.79,East,86,7.0,7.0,72,0.00,,,0.00,318,Wunderground v.1.15,2013-03-08 16:35:00,
2013-03-08 09:40:00,37.1,28.9,29.79,East,86,6.0,6.0,72,0.00,,,0.00,271,Wunderground v.1.15,2013-03-08 16:40:00,
2013-03-08 09:45:00,37.5,29.3,29.80,East,86,4.0,11.0,72,0.00,,,0.00,397,Wunderground v.1.15,2013-03-08 16:45:00,
2013-03-08 09:50:00,38.0,29.4,29.80,East,87,4.0,11.0,71,0.00,,,0.00,281,Wunderground v.1.15,2013-03-08 16:50:00,
2013-03-08 09:55:00,38.1,29.2,29.79,ENE,67,5.0,11.0,70,0.00,,,0.00,241,Wunderground v.1.15,2013-03-08 16:55:00,
2013-03-08 10:00:00,37.8,28.9,29.79,East,94,7.0,7.0,70,0.00,,,0.00,220,Wunderground v.1.15,2013-03-08 17:00:00,
2013-03-08 10:10:00,37.8,29.2,29.78,East,95,5.0,5.0,71,0.00,,,0.00,183,Wunderground v.1.15,2013-03-08 17:10:00,
2013-03-08 10:15:00,38.2,29.3,29.78,East,86,4.0,7.0,70,0.00,,,0.00,200,Wunderground v.1.15,2013-03-08 17:15:00,
2013-03-08 10:20:00,38.3,29.4,29.78,East,91,6.0,11.0,70,0.00,,,0.00,244,Wunderground v.1.15,2013-03-08 17:20:00,
2013-03-08 10:25:00,38.3,29.0,29.78,NE,56,7.0,11.0,69,0.00,,,0.00,279,Wunderground v.1.15,2013-03-08 17:25:00,
2013-03-08 10:30:00,38.2,29.3,29.77,ENE,63,7.0,7.0,70,0.00,,,0.00,223,Wunderground v.1.15,2013-03-08 17:30:00,
2013-03-08 10:35:00,38.5,29.2,29.78,ENE,64,6.0,11.0,69,0.00,,,0.00,229,Wunderground v.1.15,2013-03-08 17:35:00,
2013-03-08 10:45:00,38.5,29.2,29.78,East,86,6.0,11.0,69,0.00,,,0.00,199,Wunderground v.1.15,2013-03-08 17:45:00,
2013-03-08 10:50:00,38.7,29.0,29.78,ENE,75,7.0,11.0,68,0.00,,,0.00,232,Wunderground v.1.15,2013-03-08 17:50:00,
2013-03-08 10:55:00,38.6,29.3,29.77,ENE,77,6.0,11.0,69,0.00,,,0.00,248,Wunderground v.1.15,2013-03-08 17:55:00,
2013-03-08 11:00:00,38.8,29.5,29.77,ENE,78,5.0,5.0,69,0.00,,,0.00,234,Wunderground v.1.15,2013-03-08 18:00:00,
2013-03-08 11:10:00,38.9,29.6,29.77,ENE,78,5.0,11.0,69,0.00,,,0.00,251,Wunderground v.1.15,2013-03-08 18:10:00,
2013-03-08 11:20:00,39.0,29.7,29.77,East,84,5.0,11.0,69,0.00,,,0.00,239,Wunderground v.1.15,2013-03-08 18:20:00,
2013-03-08 11:25:00,39.1,29.4,29.77,East,96,6.0,11.0,68,0.00,,,0.00,276,Wunderground v.1.15,2013-03-08 18:25:00,
2013-03-08 11:30:00,39.2,29.5,29.76,East,99,5.0,5.0,68,0.00,,,0.00,274,Wunderground v.1.15,2013-03-08 18:30:00,
2013-03-08 11:35:00,39.3,29.6,29.75,East,98,4.0,11.0,68,0.00,,,0.00,285,Wunderground v.1.15,2013-03-08 18:35:00,
2013-03-08 11:40:00,39.5,29.4,29.75,East,98,4.0,4.0,67,0.00,,,0.00,334,Wunderground v.1.15,2013-03-08 18:40:00,
2013-03-08 11:45:00,39.9,29.8,29.75,East,98,3.0,11.0,67,0.00,,,0.00,325,Wunderground v.1.15,2013-03-08 18:45:00,
2013-03-08 11:50:00,40.1,29.6,29.75,East,100,2.0,11.0,66,0.00,,,0.00,387,Wunderground v.1.15,2013-03-08 18:50:00,
2013-03-08 11:55:00,39.8,29.4,29.75,East,99,4.0,11.0,66,0.00,,,0.00,443,Wunderground v.1.15,2013-03-08 18:55:00,
2013-03-08 12:00:00,40.1,30.0,29.74,East,99,3.0,11.0,67,0.00,,,0.00,422,Wunderground v.1.15,2013-03-08 19:00:00,
2013-03-08 12:05:00,40.6,29.7,29.74,East,98,3.0,11.0,65,0.00,,,0.00,478,Wunderground v.1.15,2013-03-08 19:05:00,
2013-03-08 12:10:00,40.6,29.7,29.73,East,98,3.0,3.0,65,0.00,,,0.00,468,Wunderground v.1.15,2013-03-08 19:10:00,
2013-03-08 12:15:00,41.0,29.7,29.73,East,98,2.0,11.0,64,0.00,,,0.00,374,Wunderground v.1.15,2013-03-08 19:15:00,
2013-03-08 12:20:00,41.3,29.6,29.73,East,98,2.0,11.0,63,0.00,,,0.00,306,Wunderground v.1.15,2013-03-08 19:20:00,
2013-03-08 12:25:00,41.2,29.2,29.72,East,98,4.0,11.0,62,0.00,,,0.00,323,Wunderground v.1.15,2013-03-08 19:25:00,
2013-03-08 12:30:00,41.3,29.3,29.72,East,97,3.0,3.0,62,0.00,,,0.00,330,Wunderground v.1.15,2013-03-08 19:30:00,
2013-03-08 12:35:00,41.4,29.3,29.71,East,98,3.0,11.0,62,0.00,,,0.00,413,Wunderground v.1.15,2013-03-08 19:35:00,
2013-03-08 12:40:00,41.9,29.8,29.71,East,98,2.0,11.0,62,0.00,,,0.00,610,Wunderground v.1.15,2013-03-08 19:40:00,
2013-03-08 12:49:00,42.5,29.2,29.70,East,97,2.0,11.0,59,0.00,,,0.00,285,Wunderground v.1.15,2013-03-08 19:49:00,
2013-03-08 12:55:00,42.2,29.3,29.70,East,98,3.0,11.0,60,0.00,,,0.00,276,Wunderground v.1.15,2013-03-08 19:55:00,
2013-03-08 13:00:00,42.2,29.3,29.69,East,97,4.0,4.0,60,0.00,,,0.00,288,Wunderground v.1.15,2013-03-08 20:00:00,
2013-03-08 13:09:00,42.5,29.2,29.69,East,96,3.0,11.0,59,0.00,,,0.00,281,Wunderground v.1.15,2013-03-08 20:09:00,
2013-03-08 13:14:00,42.6,28.8,29.69,East,97,3.0,11.0,58,0.00,,,0.00,251,Wunderground v.1.15,2013-03-08 20:14:00,
2013-03-08 13:19:00,42.8,29.0,29.68,East,94,2.0,11.0,58,0.00,,,0.00,248,Wunderground v.1.15,2013-03-08 20:19:00,
2013-03-08 13:25:00,43.3,29.1,29.68,East,97,1.0,11.0,57,0.00,,,0.00,255,Wunderground v.1.15,2013-03-08 20:25:00,
2013-03-08 13:34:00,43.5,28.8,29.68,East,98,2.0,11.0,56,0.00,,,0.00,230,Wunderground v.1.15,2013-03-08 20:34:00,
2013-03-08 13:39:00,43.1,28.9,29.67,ESE,107,4.0,4.0,57,0.00,,,0.00,236,Wunderground v.1.15,2013-03-08 20:39:00,
2013-03-08 13:44:00,43.1,28.9,29.67,ESE,106,4.0,11.0,57,0.00,,,0.00,251,Wunderground v.1.15,2013-03-08 20:44:00,
2013-03-08 13:49:00,43.1,28.5,29.66,ESE,106,3.0,3.0,56,0.00,,,0.00,325,Wunderground v.1.15,2013-03-08 20:49:00,
2013-03-08 13:54:00,43.1,28.9,29.66,East,101,4.0,4.0,57,0.00,,,0.00,462,Wunderground v.1.15,2013-03-08 20:54:00,
2013-03-08 14:04:00,43.8,29.1,29.66,East,99,2.0,11.0,56,0.00,,,0.00,657,Wunderground v.1.15,2013-03-08 21:04:00,
2013-03-08 14:10:00,44.2,29.0,29.66,East,99,3.0,11.0,55,0.00,,,0.00,563,Wunderground v.1.15,2013-03-08 21:10:00,
2013-03-08 14:15:00,44.7,29.5,29.65,East,97,2.0,11.0,55,0.00,,,0.00,501,Wunderground v.1.15,2013-03-08 21:15:00,
2013-03-08 14:20:00,44.8,28.7,29.65,East,97,2.0,2.0,53,0.00,,,0.00,380,Wunderground v.1.15,2013-03-08 21:20:00,
2013-03-08 14:25:00,44.2,28.6,29.65,ESE,113,4.0,7.0,54,0.00,,,0.00,295,Wunderground v.1.15,2013-03-08 21:25:00,
2013-03-08 14:35:00,44.5,28.9,29.65,ESE,113,2.0,11.0,54,0.00,,,0.00,355,Wunderground v.1.15,2013-03-08 21:35:00,
2013-03-08 14:40:00,45.2,29.5,29.65,ESE,113,1.0,11.0,54,0.00,,,0.00,325,Wunderground v.1.15,2013-03-08 21:40:00,
2013-03-08 14:45:00,45.4,29.7,29.65,ESE,109,2.0,11.0,54,0.00,,,0.00,411,Wunderground v.1.15,2013-03-08 21:45:00,
2013-03-08 14:50:00,45.4,29.3,29.65,ESE,107,3.0,3.0,53,0.00,,,0.00,545,Wunderground v.1.15,2013-03-08 21:50:00,
2013-03-08 15:00:00,45.6,29.0,29.65,ENE,57,3.0,11.0,52,0.00,,,0.00,264,Wunderground v.1.15,2013-03-08 22:00:00,
2013-03-08 15:05:00,45.7,29.1,29.65,ENE,58,2.0,11.0,52,0.00,,,0.00,162,Wunderground v.1.15,2013-03-08 22:05:00,
2013-03-08 15:10:00,45.8,29.2,29.65,ENE,58,1.0,1.0,52,0.00,,,0.00,179,Wunderground v.1.15,2013-03-08 22:10:00,
2013-03-08 15:15:00,46.2,29.5,29.65,ENE,58,1.0,2.0,52,0.00,,,0.00,204,Wunderground v.1.15,2013-03-08 22:15:00,
2013-03-08 15:25:00,46.0,28.9,29.65,East,96,3.0,11.0,51,0.00,,,0.00,225,Wunderground v.1.15,2013-03-08 22:25:00,
2013-03-08 15:30:00,45.9,29.2,29.65,East,98,5.0,11.0,52,0.00,,,0.00,216,Wunderground v.1.15,2013-03-08 22:30:00,
2013-03-08 15:40:00,45.8,30.1,29.65,ESE,111,5.0,11.0,54,0.00,,,0.00,257,Wunderground v.1.15,2013-03-08 22:40:00,
2013-03-08 15:45:00,45.9,30.2,29.65,ESE,117,4.0,11.0,54,0.00,,,0.00,297,Wunderground v.1.15,2013-03-08 22:45:00,
2013-03-08 15:50:00,45.8,30.5,29.64,ESE,115,5.0,11.0,55,0.00,,,0.00,221,Wunderground v.1.15,2013-03-08 22:50:00,
2013-03-08 15:55:00,46.0,30.7,29.64,ESE,115,5.0,11.0,55,0.00,,,0.00,193,Wunderground v.1.15,2013-03-08 22:55:00,
2013-03-08 16:00:00,45.9,30.6,29.64,ESE,121,5.0,5.0,55,0.00,,,0.00,202,Wunderground v.1.15,2013-03-08 23:00:00,
2013-03-08 16:05:00,45.7,30.4,29.64,ESE,121,4.0,11.0,55,0.00,,,0.00,255,Wunderground v.1.15,2013-03-08 23:05:00,
2013-03-08 16:10:00,45.8,30.5,29.65,ESE,122,4.0,11.0,55,0.00,,,0.00,279,Wunderground v.1.15,2013-03-08 23:10:00,
2013-03-08 16:15:00,45.8,30.5,29.65,SE,126,6.0,11.0,55,0.00,,,0.00,272,Wunderground v.1.15,2013-03-08 23:15:00,
2013-03-08 16:20:00,45.8,31.0,29.64,ESE,116,6.0,6.0,56,0.00,,,0.00,248,Wunderground v.1.15,2013-03-08 23:20:00,
2013-03-08 16:25:00,45.8,30.5,29.64,ESE,111,6.0,11.0,55,0.00,,,0.00,163,Wunderground v.1.15,2013-03-08 23:25:00,
2013-03-08 16:30:00,45.7,30.4,29.65,ESE,123,5.0,5.0,55,0.00,,,0.00,90,Wunderground v.1.15,2013-03-08 23:30:00,
2013-03-08 16:35:00,45.7,30.9,29.65,ESE,114,4.0,11.0,56,0.00,,,0.00,76,Wunderground v.1.15,2013-03-08 23:35:00,
2013-03-08 16:45:00,44.7,32.1,29.65,ESE,123,9.0,11.0,61,0.00,,,0.00,84,Wunderground v.1.15,2013-03-08 23:45:00,
2013-03-08 16:50:00,44.4,32.2,29.64,SE,127,8.0,8.0,62,0.00,,,0.00,100,Wunderground v.1.15,2013-03-08 23:50:00,
2013-03-08 16:55:00,44.2,32.4,29.64,SE,126,8.0,9.0,63,0.00,,,0.00,121,Wunderground v.1.15,2013-03-08 23:55:00,
2013-03-08 17:00:00,43.8,32.4,29.64,ESE,120,9.0,11.0,64,0.00,,,0.00,95,Wunderground v.1.15,2013-03-09 00:00:00,
2013-03-08 17:05:00,43.4,32.4,29.64,SE,138,10.0,11.0,65,0.00,,,0.00,58,Wunderground v.1.15,2013-03-09 00:05:00,
2013-03-08 17:10:00,43.3,32.3,29.64,ESE,111,9.0,11.0,65,0.00,,,0.00,42,Wunderground v.1.15,2013-03-09 00:10:00,
2013-03-08 17:20:00,43.1,32.5,29.64,SE,127,10.0,11.0,66,0.00,,,0.00,37,Wunderground v.1.15,2013-03-09 00:20:00,
2013-03-08 17:25:00,42.7,32.1,29.65,ESE,123,9.0,11.0,66,0.00,,,0.00,33,Wunderground v.1.15,2013-03-09 00:25:00,
2013-03-08 17:30:00,42.7,32.1,29.65,ESE,121,8.0,8.0,66,0.00,,,0.00,26,Wunderground v.1.15,2013-03-09 00:30:00,
2013-03-08 17:35:00,42.6,32.0,29.65,ESE,111,8.0,10.0,66,0.00,,,0.00,19,Wunderground v.1.15,2013-03-09 00:35:00,
2013-03-08 17:45:00,42.5,32.3,29.64,ESE,115,9.0,13.0,67,0.00,,,0.00,7,Wunderground v.1.15,2013-03-09 00:45:00,
2013-03-08 17:50:00,42.2,32.0,29.65,ESE,122,9.0,9.0,67,0.00,,,0.00,0,Wunderground v.1.15,2013-03-09 00:50:00,
2013-03-08 17:55:00,42.2,32.0,29.66,ESE,123,7.0,11.0,67,0.00,,,0.00,0,Wunderground v.1.15,2013-03-09 00:55:00,
2013-03-08 18:00:00,42.2,32.0,29.67,ESE,123,5.0,11.0,67,0.00,,,0.00,0,Wunderground v.1.15,2013-03-09 01:00:00,
2013-03-08 18:10:00,42.1,31.9,29.67,ESE,123,3.0,11.0,67,0.00,,,0.00,0,Wunderground v.1.15,2013-03-09 01:10:00,
2013-03-08 18:15:00,42.0,32.2,29.67,ESE,122,4.0,11.0,68,0.00,,,0.00,0,Wunderground v.1.15,2013-03-09 01:15:00,
2013-03-08 18:20:00,41.9,32.1,29.67,ESE,117,6.0,11.0,68,0.00,,,0.00,0,Wunderground v.1.15,2013-03-09 01:20:00,
2013-03-08 18:25:00,41.8,32.4,29.66,ESE,117,6.0,11.0,69,0.00,,,0.00,0,Wunderground v.1.15,2013-03-09 01:25:00,
2013-03-08 18:35:00,41.6,32.5,29.65,ESE,109,8.0,11.0,70,0.00,,,0.00,0,Wunderground v.1.15,2013-03-09 01:35:00,
2013-03-08 18:40:00,41.4,32.3,29.67,ESE,113,8.0,11.0,70,0.00,,,0.00,0,Wunderground v.1.15,2013-03-09 01:40:00,
2013-03-08 18:45:00,41.3,32.2,29.66,ESE,111,8.0,11.0,70,0.00,,,0.00,0,Wunderground v.1.15,2013-03-09 01:45:00,
2013-03-08 18:50:00,41.1,32.4,29.67,ESE,109,7.0,11.0,71,0.00,,,0.00,0,Wunderground v.1.15,2013-03-09 01:50:00,
2013-03-08 18:55:00,41.1,32.8,29.68,ESE,109,6.0,11.0,72,0.00,,,0.00,0,Wunderground v.1.15,2013-03-09 01:55:00,
2013-03-08 19:00:00,41.1,32.8,29.68,ESE,109,5.0,5.0,72,0.00,,,0.00,0,Wunderground v.1.15,2013-03-09 02:00:00,
2013-03-08 19:05:00,40.9,32.6,29.67,ESE,109,5.0,8.0,72,0.00,,,0.00,0,Wunderground v.1.15,2013-03-09 02:05:00,
2013-03-08 19:10:00,40.8,32.8,29.67,ESE,110,6.0,6.0,73,0.00,,,0.00,0,Wunderground v.1.15,2013-03-09 02:10:00,
2013-03-08 19:15:00,40.8,32.8,29.67,ESE,111,5.0,8.0,73,0.00,,,0.00,0,Wunderground v.1.15,2013-03-09 02:15:00,
2013-03-08 19:20:00,40.7,32.7,29.68,ESE,117,6.0,6.0,73,0.00,,,0.00,0,Wunderground v.1.15,2013-03-09 02:20:00,
2013-03-08 19:30:00,40.6,32.3,29.67,East,94,6.0,11.0,72,0.00,,,0.00,0,Wunderground v.1.15,2013-03-09 02:30:00,
2013-03-08 19:35:00,40.6,32.6,29.67,East,93,8.0,11.0,73,0.00,,,0.00,0,Wunderground v.1.15,2013-03-09 02:35:00,
2013-03-08 19:40:00,40.5,32.5,29.67,East,93,7.0,7.0,73,0.00,,,0.00,0,Wunderground v.1.15,2013-03-09 02:40:00,
2013-03-08 19:45:00,40.5,32.5,29.67,East,95,6.0,11.0,73,0.00,,,0.00,0,Wunderground v.1.15,2013-03-09 02:45:00,
2013-03-08 19:50:00,40.3,32.3,29.67,ESE,115,6.0,6.0,73,0.00,,,0.00,0,Wunderground v.1.15,2013-03-09 02:50:00,
2013-03-08 19:55:00,40.2,32.6,29.66,ESE,117,5.0,11.0,74,0.00,,,0.00,0,Wunderground v.1.15,2013-03-09 02:55:00,
2013-03-08 20:05:00,39.9,32.6,29.67,ESE,117,4.0,11.0,75,0.00,,,0.00,0,Wunderground v.1.15,2013-03-09 03:05:00,
2013-03-08 20:10:00,39.8,32.8,29.68,ESE,117,4.0,11.0,76,0.00,,,0.00,0,Wunderground v.1.15,2013-03-09 03:10:00,
2013-03-08 20:15:00,39.7,32.8,29.67,ESE,117,4.0,11.0,76,0.00,,,0.00,0,Wunderground v.1.15,2013-03-09 03:15:00,
2013-03-08 20:20:00,39.5,32.9,29.67,ESE,117,4.0,11.0,77,0.00,,,0.00,0,Wunderground v.1.15,2013-03-09 03:20:00,
2013-03-08 20:25:00,39.5,32.9,29.67,ESE,117,4.0,11.0,77,0.00,,,0.00,0,Wunderground v.1.15,2013-03-09 03:25:00,
2013-03-08 20:30:00,39.4,32.8,29.67,ESE,117,3.0,11.0,77,0.00,,,0.00,0,Wunderground v.1.15,2013-03-09 03:30:00,
2013-03-08 20:35:00,39.4,32.8,29.67,ESE,117,3.0,11.0,77,0.00,,,0.00,0,Wunderground v.1.15,2013-03-09 03:35:00,
2013-03-08 20:40:00,39.4,32.8,29.67,ESE,117,2.0,2.0,77,0.00,,,0.00,0,Wunderground v.1.15,2013-03-09 03:40:00,
2013-03-08 20:45:00,39.4,32.8,29.67,ESE,117,1.0,11.0,77,0.00,,,0.00,0,Wunderground v.1.15,2013-03-09 03:45:00,
2013-03-08 20:50:00,39.3,32.7,29.67,ESE,117,0.0,11.0,77,0.00,,,0.00,0,Wunderground v.1.15,2013-03-09 03:50:00,
2013-03-08 20:55:00,39.3,32.7,29.67,ESE,117,0.0,11.0,77,0.00,,,0.00,0,Wunderground v.1.15,2013-03-09 03:55:00,
2013-03-08 21:00:00,39.3,32.7,29.68,ESE,117,0.0,11.0,77,0.00,,,0.00,0,Wunderground v.1.15,2013-03-09 04:00:00,
2013-03-08 21:10:00,39.3,32.7,29.67,ESE,117,0.0,11.0,77,0.00,,,0.00,0,Wunderground v.1.15,2013-03-09 04:10:00,
2013-03-08 21:15:00,39.2,32.6,29.67,ESE,117,1.0,11.0,77,0.00,,,0.00,0,Wunderground v.1.15,2013-03-09 04:15:00,
2013-03-08 21:20:00,39.2,32.6,29.67,ESE,117,2.0,11.0,77,0.00,,,0.00,0,Wunderground v.1.15,2013-03-09 04:20:00,
2013-03-08 21:30:00,39.2,32.6,29.67,ESE,117,1.0,11.0,77,0.00,,,0.00,0,Wunderground v.1.15,2013-03-09 04:30:00,
2013-03-08 21:35:00,39.2,32.3,29.67,ESE,117,2.0,11.0,76,0.00,,,0.00,0,Wunderground v.1.15,2013-03-09 04:35:00,
2013-03-08 21:40:00,39.2,32.3,29.67,ESE,117,3.0,3.0,76,0.00,,,0.00,0,Wunderground v.1.15,2013-03-09 04:40:00,
2013-03-08 21:45:00,39.1,32.2,29.67,ESE,117,1.0,11.0,76,0.00,,,0.00,0,Wunderground v.1.15,2013-03-09 04:45:00,
2013-03-08 21:50:00,38.9,32.0,29.67,ESE,117,0.0,11.0,76,0.00,,,0.00,0,Wunderground v.1.15,2013-03-09 04:50:00,
2013-03-08 22:00:00,38.8,32.2,29.66,ESE,117,2.0,11.0,77,0.00,,,0.00,0,Wunderground v.1.15,2013-03-09 05:00:00,
2013-03-08 22:05:00,38.7,32.1,29.67,ESE,117,3.0,11.0,77,0.00,,,0.00,0,Wunderground v.1.15,2013-03-09 05:05:00,
2013-03-08 22:10:00,38.6,32.0,29.66,ESE,117,4.0,4.0,77,0.00,,,0.00,0,Wunderground v.1.15,2013-03-09 05:10:00,
2013-03-08 22:15:00,38.6,32.0,29.66,ESE,117,4.0,5.0,77,0.00,,,0.00,0,Wunderground v.1.15,2013-03-09 05:15:00,
2013-03-08 22:25:00,38.5,31.9,29.65,ESE,115,5.0,8.0,77,0.00,,,0.00,0,Wunderground v.1.15,2013-03-09 05:25:00,
2013-03-08 22:30:00,38.5,31.9,29.65,ENE,59,6.0,6.0,77,0.00,,,0.00,0,Wunderground v.1.15,2013-03-09 05:30:00,
2013-03-08 22:35:00,38.6,32.3,29.65,ENE,66,5.0,11.0,78,0.00,,,0.00,0,Wunderground v.1.15,2013-03-09 05:35:00,
2013-03-08 22:40:00,38.5,32.2,29.65,ENE,66,2.0,2.0,78,0.00,,,0.00,0,Wunderground v.1.15,2013-03-09 05:40:00,
2013-03-08 22:50:00,38.4,32.1,29.64,ENE,66,1.0,1.0,78,0.00,,,0.00,0,Wunderground v.1.15,2013-03-09 05:50:00,
2013-03-08 22:55:00,38.4,32.1,29.64,ENE,66,1.0,11.0,78,0.00,,,0.00,0,Wunderground v.1.15,2013-03-09 05:55:00,
2013-03-08 23:00:00,38.3,32.4,29.64,ENE,66,1.0,11.0,79,0.00,,,0.00,0,Wunderground v.1.15,2013-03-09 06:00:00,
2013-03-08 23:05:00,38.2,31.9,29.64,ENE,66,2.0,11.0,78,0.00,,,0.00,0,Wunderground v.1.15,2013-03-09 06:05:00,
2013-03-08 23:10:00,38.2,31.9,29.64,ENE,66,2.0,2.0,78,0.00,,,0.00,0,Wunderground v.1.15,2013-03-09 06:10:00,
2013-03-08 23:20:00,38.0,32.1,29.63,ENE,66,0.0,11.0,79,0.00,,,0.00,0,Wunderground v.1.15,2013-03-09 06:20:00,
2013-03-08 23:25:00,37.9,31.7,29.63,ENE,66,1.0,11.0,78,0.00,,,0.00,0,Wunderground v.1.15,2013-03-09 06:25:00,
2013-03-08 23:30:00,37.9,31.7,29.63,ENE,66,2.0,11.0,78,0.00,,,0.00,0,Wunderground v.1.15,2013-03-09 06:30:00,
2013-03-08 23:35:00,37.8,31.6,29.63,ENE,65,3.0,11.0,78,0.00,,,0.00,0,Wunderground v.1.15,2013-03-09 06:35:00,
2013-03-08 23:40:00,37.7,31.5,29.63,ENE,66,3.0,11.0,78,0.00,,,0.00,0,Wunderground v.1.15,2013-03-09 06:40:00,
2013-03-08 23:45:00,37.7,31.5,29.62,ENE,66,3.0,11.0,78,0.00,,,0.00,0,Wunderground v.1.15,2013-03-09 06:45:00,
2013-03-08 23:55:00,37.5,31.3,29.62,ENE,66,3.0,11.0,78,0.00,,,0.00,0,Wunderground v.1.15,2013-03-09 06:55:00,